Regional Weather Roundup
Issued by NWS

Home | Current Version | Previous Version | Text Only | Print | Product List | Glossary Off
Versions: 1 2 3 4 5 6 7 8 9 10 11 12 13 14 15 16 17 18 19 20 21 22 23 24 25 26 27 28 29 30 31 32 33 34 35 36 37 38 39 40 41 42 43 44 45 46 47 48 49 50

000
ASUS43 KFSD 161202
RWRSD

WEATHER ROUNDUP FOR SOUTH DAKOTA
NATIONAL WEATHER SERVICE SIOUX FALLS SD
700 AM CDT TUE SEP 16 2014

NOTE: "FAIR" INDICATES FEW OR NO CLOUDS BELOW 12,000 FEET WITH NO
SIGNIFICANT WEATHER AND/OR OBSTRUCTIONS TO VISIBILITY.


SDZ001>005-009-010-012>017-161300-
NORTHWEST AND NORTH CENTRAL SOUTH DAKOTA

CITY           SKY/WX    TMP DP  RH WIND       PRES   REMARKS
FAITH            N/A     41  38  89 S5        30.02S
MOBRIDGE       CLEAR     47  42  83 S7        30.03S
$$

SDZ012>016-024>037-041>051-057-063-072>074-161300-
SOUTHWEST AND SOUTH CENTRAL SOUTH DAKOTA

CITY           SKY/WX    TMP DP  RH WIND       PRES   REMARKS
RAPID CTY ARPT CLEAR     42  39  89 CALM      30.04R
PIERRE         CLEAR     46  41  82 SE12      30.04F
CUSTER         PTCLDY    48  35  60 N3        30.13S
ELLSWORTH AFB  CLEAR     45  41  83 NW2       30.03S
PHILIP         CLEAR     42  39  89 CALM      30.03S
PINE RIDGE     CLEAR     51  47  86 SW6       30.05F
WINNER         FAIR      52  42  69 S18       30.07F
$$

SDZ004>011-016>023-039-040-161300-
NORTHEAST SOUTH DAKOTA

CITY           SKY/WX    TMP DP  RH WIND       PRES   REMARKS
ABERDEEN       CLEAR     33  32  96 SE5       30.11F WCI  29
WATERTOWN      CLEAR     37  35  92 S5        30.15F
SISSETON         N/A     51  39  63 SW15      30.11F
$$

SDZ017-020-022-023-036>040-048>070-161300-
SOUTHEAST SOUTH DAKOTA

CITY           SKY/WX    TMP DP  RH WIND       PRES   REMARKS
SIOUX FALLS    CLEAR     40  38  93 CALM      30.19F
HURON          CLEAR     39  37  92 SE7       30.14F
CHAMBERLAIN    CLEAR     42  40  94 SE7       30.09F
MITCHELL       CLEAR     41  39  93 S7        30.16F
YANKTON        CLEAR     39  37  93 E3        30.20S
$$

ABBREVIATIONS USED IN REMARKS
   TC - TEMPERATURE IN CELSIUS
  WCI - WIND CHILL INDEX
   HX - HEAT INDEX
  VSB - VISIBILITY




USA.gov is the U.S. government's official web portal to all federal, state and local government web resources and services.